OIMB  Birjand Airport

Add Bookmark

Birjand, Iran

Status
Operational
Latitude Longitude
32° 53' 53" N 59° 15' 57" E
32.898056 59.266111
Local (DST + 5) UTC (GMT + 4)
Nov 1, 2014 07:20 Nov 1, 2014 03:50
Sunrise-Sunset Local UTC
Begin Civil Twilight 05:24 01:54
Sunrise 05:49 02:19
Sunset 04:43 13:13
End Civil Twilight 05:08 13:38

Current Weather

METAR Observed VFR
OIMB 010300Z 09004KT CAVOK 10/M07 Q1018 Sat, Nov 1, 2014 @ 03:00 UTC
(50 Minutes ago)
Visual Flight Rules
Wind Visibility Clouds Conditions
090° at 4 knots (7 kph) 10 km or more
  • Clear skies
  • No significant weather
Temperatures Readings Precipitation
Current Temp 10°C (50°F)
Dewpoint -7°C (19°F)
Humidity 30%
Altimeter 30.06"Hg
Sea Level Pressure 1018mb
Field Elevation 4891.73'
None Recorded

Additional weather within a 185.2km radius of OIMB

Map ICAO Location
OIMD 170.2km N (342°)

24 Hour Weather History

Loading
-

24 Hour Weather Graphs

Loading
-

CheckWX.com is intended as a tool to help pilots better visualize weather data. It is not intended as a substitute for an official weather briefing obtained from a Flight Service Station. CheckWX.com does not meet the FAA requirements for an official pre-flight weather briefing. Therefore, it's important that pilots still call and obtain an official FSS pre-flight weather briefing.